[[{"header":{"parameterUnit":"m.s-1","parameterCategory":1,"la1":30.2991,"la2":30.254,"lo1":-89.0895,"lo2":-89.0444,"dy":0.0017,"dx":0.0017,"nx":28,"ny":28,"refTime":"2025-11-14T03:00:00:Z","depth":0,"parameterNumber":2,"parameterNumberName":"U-component_of_WINDS"},"data":[0,0,0,0,0,0,0,0,0,0,0,0,0,0,0,0,0,0,0,0,0,0,0,0,0,0,0,0,0,0,0,0,0,0,0,0,0,0,0,0,0,0,0,0,0,0,0,0,0,0,0,0,0,0,0,0,0,0,0.2317,0.2317,0,0.2324,0.2324,0.2324,0.2306,0.2306,0.2305,0.2305,0.2312,0.2313,0.2313,0,0,0,0,0,0,0,0,0,0,0,0,0,0.2289,0.229,0.2317,0.2317,0.2317,0.2324,0.2324,0.2324,0.2306,0.2306,0.2305,0.2304,0.2312,0.2313,0.2314,0,0,0,0,0,0,0,0,0,0,0,0,0,0.2299,0.229,0.2317,0.2309,0.2309,0.2324,0.2324,0.2324,0.2307,0.2306,0.2305,0.2304,0.2312,0.2313,0.2314,0.2337,0,0,0.2317,0.2317,0,0,0,0,0,0,0,0,0.2298,0.23,0.231,0.231,0.2309,0.2313,0.2317,0.2329,0.2307,0.2307,0.2305,0.2304,0.2313,0.2314,0.2317,0.2337,0.2338,0.2317,0.2318,0.2318,0.2318,0,0,0,0,0,0,0,0.2298,0.23,0.232,0.2311,0.231,0.2305,0.2306,0.2319,0.2315,0.2307,0.2306,0.2307,0.2313,0.2316,0.2317,0.2338,0.2317,0.2318,0.2319,0.2319,0.2377,0.2378,0,0,0,0,0,0,0.2298,0.2299,0.232,0.232,0.2302,0.2307,0.2307,0.2313,0.2315,0.2314,0.2308,0.2306,0.2315,0.2316,0.2317,0.2345,0.2318,0.2319,0.232,0.2376,0.2377,0.2378,0,0,0,0,0,0,0.2298,0.23,0.2319,0.2309,0.2311,0.2308,0.2315,0.2313,0.2317,0.2315,0.2314,0.2312,0.2314,0.2316,0.2332,0.2345,0.232,0.2321,0.2375,0.2377,0.2378,0.24,0,0,0,0,0,0,0.2297,0.23,0.2309,0.231,0.2312,0.2334,0.2315,0.2314,0.2319,0.2317,0.2319,0.2318,0.2314,0.2331,0.2333,0.2346,0.2321,0.2374,0.2376,0.2377,0.2398,0.2402,0.2405,0,0,0,0,0,0.2296,0.2315,0.2309,0.2312,0.2323,0.2335,0.2336,0.233,0.232,0.2329,0.2327,0.2318,0.2343,0.2333,0.2335,0.2348,0.2373,0.2375,0.2377,0.2396,0.2401,0.2405,0,0,0,0,0,0,0.2316,0.2315,0.2309,0.2329,0.2332,0.2332,0.2343,0.2335,0.2342,0.234,0.2332,0.2333,0.235,0.2351,0.2339,0.2371,0.2356,0.2359,0.237,0.2374,0.2378,0.2377,0.2322,0,0,0,0,0,0.2323,0.2332,0.2331,0.2348,0.235,0.2346,0.2351,0.2346,0.235,0.2351,0.2351,0.2354,0.2363,0.2369,0.2376,0.2398,0.2398,0.2408,0.2412,0.2415,0.2417,0.2428,0.2433,0.2385,0.2385,0.2385,0,0,0.2337,0.2337,0.2344,0.2352,0.2354,0.2365,0.2348,0.2359,0.2367,0.2353,0.2368,0.2368,0.2371,0.239,0.2399,0.2391,0.243,0.2417,0.2419,0.242,0.2431,0.2435,0.2439,0.2386,0.2386,0.2386,0,0,0.2367,0.2369,0.2383,0.2386,0.2389,0.2386,0.2389,0.239,0.239,0.2405,0.2395,0.2403,0.2418,0.2421,0.2424,0.2456,0.2447,0.2458,0.2477,0.2488,0.2492,0.2495,0.2506,0.251,0.2461,0.2461,0.2461,0,0.2384,0.2399,0.2392,0.2404,0.2408,0.2396,0.2411,0.2413,0.2419,0.2422,0.2414,0.2432,0.2433,0.2452,0.246,0.2463,0.2467,0.2458,0.2492,0.2495,0.2498,0.2508,0.2512,0.2462,0.2462,0.2462,0.2462,0,0.242,0.243,0.2442,0.2447,0.2452,0.2466,0.2461,0.2467,0.2462,0.246,0.2475,0.2476,0.2484,0.2488,0.2483,0.2507,0.2502,0.2493,0.2478,0.2504,0.2513,0.2517,0.2464,0.2464,0.2463,0.2463,0,0,0.2463,0.2464,0.2469,0.2471,0.2473,0.2481,0.2494,0.2501,0.2507,0.2511,0.2521,0.2534,0.2525,0.2529,0.2524,0.2534,0.2558,0.2523,0.2523,0.253,0.2584,0.2591,0.2596,0.2553,0.2554,0.2554,0.2584,0,0.2493,0.2515,0.2509,0.2531,0.254,0.2529,0.254,0.2542,0.2541,0.2548,0.2547,0.2556,0.2544,0.2546,0.2555,0.2554,0.2569,0.2551,0.2563,0.2563,0.2562,0.2601,0.2608,0.2636,0.2588,0.2588,0.2589,0,0.2531,0.2537,0.256,0.256,0.2564,0.2574,0.258,0.2587,0.259,0.2588,0.2592,0.2585,0.2598,0.2583,0.26,0.2588,0.2592,0.2592,0.2593,0.2594,0.2577,0.2603,0.2645,0.2649,0.2595,0.2594,0.2594,0,0.2561,0.2574,0.2589,0.2591,0.2592,0.26,0.26,0.2602,0.2607,0.2612,0.2615,0.2622,0.2626,0.2631,0.2626,0.2616,0.2644,0.2628,0.2642,0.2642,0.2649,0.2648,0.2692,0.2652,0.2652,0.2652,0.2651,0,0.2595,0.2609,0.2602,0.2611,0.2627,0.262,0.2635,0.2635,0.2637,0.2646,0.2636,0.2645,0.2638,0.2646,0.2642,0.2656,0.2658,0.2657,0.2656,0.2658,0.2658,0.266,0.2658,0.2653,0.2652,0.2652,0.2652,0,0.263,0.2626,0.2642,0.2641,0.2642,0.2653,0.2653,0.2661,0.2659,0.267,0.2673,0.2669,0.2678,0.2673,0.2683,0.268,0.2699,0.2695,0.2698,0.2697,0.2711,0.2709,0.2758,0.2763,0.272,0.272,0.272,0,0.2652,0.2663,0.2664,0.2669,0.267,0.2679,0.2683,0.2677,0.2682,0.2686,0.2694,0.2702,0.2708,0.2723,0.2721,0.2728,0.2724,0.274,0.2725,0.2726,0.2724,0.2723,0.2724,0.2743,0.2744,0.2744,0.2745,0,0.2691,0.2689,0.2696,0.2702,0.2708,0.2712,0.2716,0.2721,0.2714,0.2721,0.273,0.2734,0.2744,0.2752,0.2758,0.2758,0.275,0.275,0.2753,0.2755,0.2756,0.2755,0.2706,0.2748,0.2748,0.2748,0.2748,0.2747,0.2721,0.2729,0.2731,0.2739,0.2741,0.2745,0.2753,0.2751,0.2759,0.2766,0.2761,0.2772,0.2774,0.2781,0.2783,0.2791,0.2784,0.2789,0.2791,0.2792,0.2794,0.2755,0.2792,0.2792,0.2792,0.2792,0.2791,0,0.2759,0.276,0.2767,0.2773,0.2779,0.2771,0.2774,0.278,0.2789,0.2792,0.2798,0.2808,0.2816,0.2814,0.2821,0.2828,0.2824,0.283,0.2829,0.283,0.2799,0.2795,0.2833,0.2833,0.2833,0.2833,0.2833,0.2833,0.278,0.2794,0.2792,0.2807,0.2807,0.2817,0.282,0.2823,0.2825,0.2837,0.2843,0.2842,0.2843,0.285,0.2857,0.2856,0.2859,0.2866,0.2864,0.2836,0.2832,0.2828,0.2824,0.2867,0.2867,0.2893,0.2894,0.2894]},{"header":{"parameterUnit":"m.s-1","parameterCategory":1,"la1":30.2991,"la2":30.254,"lo1":-89.0895,"lo2":-89.0444,"dy":0.0017,"dx":0.0017,"nx":28,"ny":28,"refTime":"2025-11-14T03:00:00:Z","depth":0,"parameterNumber":3,"parameterNumberName":"V-component_of_WINDS"},"data":[0,0,0,0,0,0,0,0,0,0,0,0,0,0,0,0,0,0,0,0,0,0,0,0,0,0,0,0,0,0,0,0,0,0,0,0,0,0,0,0,0,0,0,0,0,0,0,0,0,0,0,0,0,0,0,0,0,0,0.1729,0.1729,0,0.1721,0.1721,0.1721,0.1711,0.1711,0.1711,0.1711,0.1702,0.1701,0.1701,0,0,0,0,0,0,0,0,0,0,0,0,0,0.1737,0.1737,0.1729,0.1729,0.1729,0.1721,0.1721,0.1721,0.1711,0.1711,0.1711,0.1711,0.1702,0.1701,0.1701,0,0,0,0,0,0,0,0,0,0,0,0,0,0.1732,0.1737,0.1729,0.1723,0.1723,0.1721,0.1721,0.1721,0.1711,0.1711,0.1711,0.171,0.1702,0.1702,0.1701,0.1704,0,0,0.1701,0.1701,0,0,0,0,0,0,0,0,0.1732,0.1732,0.1724,0.1724,0.1723,0.1717,0.172,0.1715,0.1711,0.1716,0.1711,0.171,0.1707,0.1706,0.1705,0.1704,0.1704,0.1701,0.1701,0.1701,0.1701,0,0,0,0,0,0,0,0.1733,0.1732,0.1726,0.1724,0.1724,0.1721,0.172,0.1719,0.1712,0.1715,0.1714,0.1714,0.1706,0.1705,0.1705,0.1704,0.1701,0.1701,0.1701,0.1701,0.1704,0.1705,0,0,0,0,0,0,0.1734,0.1732,0.1726,0.1726,0.1727,0.1721,0.172,0.1719,0.1712,0.1711,0.1714,0.1713,0.1706,0.1705,0.1704,0.1708,0.1701,0.17,0.17,0.1704,0.1704,0.1705,0,0,0,0,0,0,0.1734,0.1733,0.1727,0.1729,0.1728,0.1721,0.172,0.1719,0.1718,0.1711,0.171,0.1714,0.1705,0.1705,0.1704,0.1707,0.17,0.17,0.1704,0.1704,0.1704,0.1714,0,0,0,0,0,0,0.1734,0.1734,0.1735,0.1729,0.1728,0.1727,0.172,0.1719,0.1718,0.1717,0.1711,0.171,0.1705,0.1705,0.1704,0.1707,0.17,0.1704,0.1704,0.1704,0.1713,0.1715,0.1716,0,0,0,0,0,0.1735,0.1738,0.1735,0.1734,0.1729,0.1727,0.1727,0.1721,0.1718,0.1719,0.1715,0.171,0.1707,0.1705,0.1704,0.1707,0.1703,0.1704,0.1704,0.1713,0.1714,0.1716,0,0,0,0,0,0,0.1744,0.1737,0.1734,0.1735,0.1732,0.1726,0.1727,0.1723,0.172,0.172,0.1713,0.1712,0.1712,0.1709,0.1707,0.1709,0.1704,0.1705,0.1711,0.1712,0.1714,0.1714,0.17,0,0,0,0,0,0.1747,0.1746,0.1739,0.1741,0.174,0.1734,0.1733,0.1729,0.1725,0.1724,0.1719,0.1716,0.1714,0.1713,0.1711,0.1713,0.1711,0.1714,0.1715,0.1716,0.1717,0.1717,0.1718,0.1706,0.1706,0.1706,0,0,0.1752,0.1747,0.1747,0.1743,0.174,0.1739,0.1733,0.1732,0.1731,0.1723,0.1723,0.172,0.1715,0.1716,0.1716,0.1714,0.172,0.1717,0.1717,0.1717,0.1718,0.1719,0.172,0.1706,0.1706,0.1706,0,0,0.176,0.1757,0.1758,0.1755,0.175,0.1746,0.1747,0.1741,0.1738,0.1738,0.1732,0.1731,0.1728,0.1725,0.1723,0.173,0.1725,0.1729,0.1735,0.1736,0.1737,0.1737,0.174,0.1741,0.173,0.173,0.173,0,0.1767,0.1765,0.1759,0.1759,0.1757,0.175,0.1751,0.1748,0.1743,0.1742,0.1739,0.1735,0.1732,0.1732,0.1733,0.1732,0.1732,0.173,0.1737,0.1738,0.1738,0.1741,0.1742,0.173,0.173,0.173,0.173,0,0.1774,0.1773,0.1774,0.177,0.1768,0.1768,0.1762,0.1761,0.1757,0.1753,0.1752,0.1748,0.1745,0.1744,0.174,0.1744,0.1742,0.1738,0.1733,0.174,0.1742,0.1743,0.1731,0.1731,0.173,0.173,0,0,0.1789,0.178,0.1781,0.1779,0.1773,0.1772,0.1772,0.1769,0.1768,0.1765,0.1764,0.1762,0.1758,0.1756,0.1751,0.1752,0.1757,0.1748,0.1747,0.175,0.176,0.1764,0.1765,0.1754,0.1754,0.1754,0.1761,0,0.1796,0.1796,0.179,0.1791,0.179,0.1783,0.1783,0.1779,0.1775,0.1774,0.1769,0.1767,0.1762,0.1761,0.1761,0.1757,0.1759,0.1756,0.1754,0.1754,0.1756,0.1766,0.177,0.1776,0.1762,0.1762,0.1762,0,0.1805,0.1802,0.1804,0.1797,0.1797,0.1797,0.1793,0.1792,0.1787,0.1785,0.1782,0.1777,0.1776,0.1771,0.177,0.1768,0.1766,0.1764,0.1764,0.1764,0.1759,0.1766,0.1778,0.1779,0.1763,0.1763,0.1763,0,0.1816,0.1813,0.1813,0.1811,0.1804,0.1804,0.1801,0.1796,0.1795,0.1792,0.179,0.1787,0.1785,0.1783,0.1777,0.1774,0.1776,0.1771,0.1774,0.1774,0.1775,0.1775,0.1787,0.1773,0.1773,0.1773,0.1773,0,0.1826,0.1827,0.1818,0.1818,0.1819,0.1812,0.1813,0.1809,0.1805,0.1804,0.1797,0.1796,0.1788,0.1786,0.1782,0.1781,0.178,0.1778,0.1777,0.1779,0.1779,0.1778,0.1778,0.1774,0.1774,0.1774,0.1774,0,0.1839,0.1833,0.1832,0.1825,0.1824,0.1824,0.1818,0.1818,0.1814,0.1813,0.1812,0.1805,0.1802,0.1796,0.1792,0.1788,0.1789,0.1787,0.1791,0.179,0.1794,0.1794,0.1805,0.1807,0.1793,0.1793,0.1793,0,0.1845,0.1846,0.1839,0.1838,0.1835,0.1833,0.1832,0.1825,0.1823,0.1818,0.1818,0.1815,0.1812,0.1809,0.1803,0.18,0.1797,0.1801,0.1797,0.1799,0.1797,0.1798,0.1798,0.1803,0.1803,0.1803,0.1803,0,0.1858,0.1854,0.1852,0.1849,0.1847,0.1844,0.1841,0.184,0.1832,0.1831,0.1828,0.1826,0.1821,0.1818,0.1814,0.1811,0.1806,0.1805,0.1805,0.1808,0.181,0.1809,0.1794,0.1805,0.1804,0.1804,0.1804,0.1804,0.1868,0.1868,0.1863,0.1861,0.1857,0.1854,0.1853,0.1849,0.1846,0.1842,0.1838,0.1836,0.1831,0.1825,0.1822,0.182,0.1817,0.1818,0.1818,0.1818,0.1819,0.181,0.1819,0.1819,0.1819,0.1819,0.1819,0,0.188,0.1876,0.1874,0.187,0.1868,0.1863,0.1859,0.1857,0.1856,0.1851,0.1849,0.1845,0.1842,0.1836,0.1833,0.1832,0.183,0.1831,0.1832,0.1831,0.1822,0.1822,0.1834,0.1834,0.1834,0.1834,0.1834,0.1834,0.1886,0.1886,0.1882,0.188,0.1877,0.1875,0.1873,0.187,0.1866,0.1863,0.186,0.1856,0.1851,0.1847,0.1844,0.1842,0.1841,0.1844,0.1841,0.1833,0.1832,0.183,0.183,0.1844,0.1844,0.1851,0.1851,0.1851]}]]